User: anonymous   Login
Location: Unspecified
(0.0000°N, 0.0000°E)
Time: 17:22:39
(UTC+00:00)
Language:

COSMOS 2390 - Orbit

View from above orbital plane
View from above orbital plane
View from above satellite
View from above satellite

Ground track
Ground track

The orbit data is extracted from the following two-line orbital elements,

1 27464U 02036A   19017.12348048  .00000009  00000-0 -84207-5 0  9998
2 27464  82.4818 238.1151 0025934  62.0328 298.3369 12.44568360750945
Epoch (UTC): 17 January 2019 02:57:48
Eccentricity: 0.0025934
inclination: 82.4818°
perigee height: 1467 km
apogee height: 1507 km
right ascension of ascending node: 238.1151°
argument of perigee: 62.0328°
revolutions per day: 12.44568360
mean anomaly at epoch: 298.3369°
orbit number at epoch: 75094

The dashed part of the orbit path shows where the satellite is in the earth's shadow,  

DLR